GALAXY 11 (G-11)

Last updated on Tue Nov 19 2024 00:02:39 GMT+0000 (Coordinated Universal Time)

1 26038U 99071A 24323.50813412 -.00000143 00000+0 00000+0 0 9990 2 26038 5.2762 77.4337 0005248 233.4032 93.3116 0.99970820 91298
UTC large
Height (km)
Speed (km/s)
/
Latitude / Longitude
Inclination (degrees)
Orbital Period (minutes)
Azimuth
Elevation
Range (km)
Doppler Factor

Next 0 passes for location: London (51.5072 / 0.1276)

Sorry there are no passes over London.